Location: Pinon Hills
(34.4429°N, 117.6403°W)
Time: 22:33:03
(UTC-08:00)

Daily predictions for brighter satellites

Satellite Brightness Start Highest point End
(mag) Time Altitude Azimuth Time Altitude Azimuth Time Altitude Azimuth
Ariane Rocket 3.0 17:05:04 10° SSE 17:10:05 64° ENE 17:15:07 10° N
IDEFIX/ARIANE 42P 4.5 17:08:58 10° SSW 17:13:43 35° W 17:18:30 10° NNW
Cosmos 1606 4.0 17:13:02 10° SE 17:15:49 20° E 17:18:35 10° NE
CORIOLIS 4.3 17:10:32 10° SSE 17:15:49 55° ENE 17:21:08 10° N
Meteor 1-28 Rocket 3.2 17:12:16 10° NNE 17:15:55 60° E 17:19:35 10° S
Cosmos 1862 4.4 17:12:21 10° NNW 17:16:15 50° W 17:20:09 10° SSW
AQUARIUS 4.1 17:16:44 10° SSE 17:21:11 72° ENE 17:25:40 10° N
EO 1 Del DPAF 4.1 17:19:18 10° NE 17:22:41 30° E 17:26:03 10° SSE
BREEZE-M R/B 4.4 17:21:20 10° N 17:23:09 15° NE 17:24:58 11° ENE
Cosmos 1486 Rocket 4.1 17:18:19 10° S 17:23:22 55° ESE 17:28:29 10° NNE
Cosmos 841 Rocket 4.3 17:19:04 10° N 17:23:41 30° ENE 17:28:15 10° SE
Cosmos 1782 3.8 17:20:48 10° SSE 17:24:09 26° E 17:27:31 10° NNE
MTI 4.2 17:22:16 10° NNE 17:25:19 40° E 17:28:22 10° S
Landsat 4 3.7 17:22:26 10° NNE 17:26:12 60° ESE 17:29:56 10° S
SKYMED 2 4.0 17:24:46 10° NNE 17:28:51 40° E 17:32:56 10° SSE
Cosmos 1908 Rocket 4.1 17:24:54 10° NNE 17:28:54 36° E 17:32:53 10° SSE
Cosmos 2233 Rocket 4.0 17:25:03 10° S 17:31:20 83° E 17:37:35 10° N
USA 234 3.3 17:25:01 10° NE 17:31:34 78° SE 17:38:06 10° SW
Cosmos 1733 Rocket 3.3 17:27:42 10° N 17:32:08 76° W 17:36:34 10° S
Cosmos 972 Rocket 3.8 17:27:57 10° NNW 17:32:52 88° ENE 17:37:49 10° SSE
SPOT 3 Rocket 4.2 17:30:10 10° SE 17:34:43 31° ENE 17:39:16 10° N
Sich 1 Rocket 4.1 17:32:37 10° NNE 17:36:43 37° E 17:40:51 10° SSE
Meteor 1-25 Rocket 4.4 17:31:34 10° N 17:37:16 52° E 17:42:53 10° SSE
Cosmos 1862 Rocket 4.5 17:33:51 10° SSW 17:38:08 52° W 17:42:29 10° N
Chunghua 1 4.4 17:36:38 10° W 17:40:20 82° N 17:42:52 19° E
Meteor 1-20 Rocket 4.3 17:36:20 10° N 17:41:44 50° E 17:47:01 10° SSE
Cosmos 2082 Rocket 3.2 17:40:35 10° N 17:45:03 23° ENE 17:47:56 16° E
Cosmos 405 Rocket 4.0 17:42:11 10° SE 17:45:04 20° E 17:45:18 20° E
GENESIS II 4.1 17:42:01 10° NNW 17:45:54 60° ENE 17:49:43 10° SE
CZ-4C R/B 4.3 17:42:08 10° N 17:46:02 15° NE 17:47:31 14° NE
Cosmos 972 4.3 17:46:36 10° N 17:51:34 64° ENE 17:56:22 10° SSE
MONITOR-E 4.3 17:49:27 10° SSE 17:52:21 45° ENE 17:55:18 10° N
ERS-2 2.0 17:53:35 10° SSE 17:57:15 81° ENE 18:00:57 10° N
METEOR-M 4.0 17:53:18 10° SSE 17:58:37 78° ENE 18:03:57 10° N
CZ-3A R/B 4.0 17:45:08 10° NW 17:58:43 54° NE 18:03:13 18° ESE
ERBS 2.3 17:55:28 10° NNW 17:58:50 57° NE 18:00:21 29° ESE
OAO 3 Copernicus 4.3 17:54:05 10° W 17:59:11 83° N 18:02:00 27° E
Okean 1-7 3.0 17:56:34 10° S 18:00:51 64° E 18:05:12 10° NNE
Meteor 1-10 Rocket 4.2 17:55:30 10° S 18:01:01 60° E 18:06:39 10° NNE
Cosmos 304 Rocket 3.8 17:59:34 10° NNW 18:04:23 82° WSW 18:09:10 10° SSE
BREEZE M DEB (TANK) 4.4 18:06:58 10° W 18:08:28 15° SW 18:09:55 10° S
Cosmos 1891 Rocket 4.4 18:04:39 10° S 18:10:45 61° E 18:16:45 10° NNE
Thor Agena Rocket 4.0 18:11:18 32° ENE 18:12:43 38° E 18:17:28 10° SSE
Cosmos 1782 Rocket 3.4 18:08:53 10° N 18:13:13 69° E 18:17:32 10° SSE
OAO 3 Rocket 4.2 18:09:36 10° SW 18:14:00 33° SSE 18:15:23 28° ESE
YAOGAN 1 3.5 18:10:39 10° S 18:14:50 49° W 18:19:02 10° NNW
BREEZE-M DEB (TANK) 2.8 18:10:00 10° WNW 18:16:23 66° SW 18:17:59 28° SE
CZ-4 R/B 3.5 18:13:25 10° SSW 18:16:46 27° W 18:20:06 10° NW
COSMO-SKYMED 1 3.4 18:12:43 10° N 18:16:56 51° WNW 18:21:08 10° SSW
Cosmos 2221 Rocket 3.7 18:19:25 10° S 18:23:48 75° W 18:28:12 10° N
Celestis-02/Orion 38 4.4 18:24:31 32° NE 18:26:55 73° ESE 18:32:06 10° SSW
Cosmos 2034 Rocket 3.9 18:23:53 10° S 18:30:14 76° E 18:36:36 10° N
ALOS 2.3 18:27:18 10° S 18:31:57 78° WSW 18:36:38 10° NNW
SL-27 R/B 2.9 18:29:55 10° NNW 18:32:48 55° WNW 18:32:48 55° WNW
FENGYUN 3A 3.7 18:28:42 10° S 18:34:07 82° WSW 18:39:34 10° NNW
Nadezhda 4 Rocket 4.1 18:28:53 10° N 18:34:46 47° E 18:40:37 10° SSE
Meteor 1-11 Rocket 3.8 18:29:19 10° N 18:35:02 52° ENE 18:40:34 10° SSE
Cosmos 2297 4.1 18:33:10 10° SSW 18:38:48 64° WNW 18:42:46 20° N
Cosmos 1633 4.0 18:38:12 10° NNW 18:41:37 38° W 18:45:01 10° SSW
Cosmos 1833 Rocket 2.5 18:39:44 10° NNW 18:45:23 78° ENE 18:46:55 49° SE
Cosmos 2278 Rocket 4.3 18:41:43 10° WSW 18:46:04 22° WNW 18:50:27 10° N
Okean 2 Rocket 3.3 18:45:10 10° NNW 18:49:41 71° W 18:54:10 10° S
Cosmos 1441 Rocket 4.1 18:46:07 10° SSW 18:49:07 47° SW 18:49:07 47° SW
Cosmos 968 Rocket 3.6 18:51:45 10° SSW 18:55:59 61° S 18:55:59 61° S
Cosmos 540 Rocket 3.9 18:58:44 10° NNW 19:03:49 58° WSW 19:06:26 27° S
Meteor 2-20 4.5 18:59:06 10° N 19:05:10 75° W 19:11:12 10° S
MOS 1-B Rocket 4.4 19:06:08 10° SSE 19:12:59 88° ENE 19:21:08 10° NNW
Cosmos 2082 Rocket 3.2 19:23:57 10° NW 19:29:17 43° WSW 19:29:58 41° SW
CZ-4C R/B 3.8 19:28:35 10° NNW 19:32:45 37° N 19:32:45 37° N
